This is the latest recevied weather packets stored in our database for station/object N8DMH-13. If no packets are shown the sender has not sent any weather packets the latest 10 day(s).
| Time | Temp. | Humidity | Pressure | Rain* | Wind** | Luminosity | Snow |
|---|---|---|---|---|---|---|---|
| 1777760388 | 10.56° C | 32% | 1015.5 hPa | 0 mm | - | - | - |
| 1777760058 | 11.11° C | 33% | 1015.5 hPa | 0 mm | - | - | - |
| 1777759758 | 11.11° C | 34% | 1015.5 hPa | 0 mm | - | - | - |
| 1777759428 | 11.11° C | 33% | 1015.5 hPa | 0 mm | - | - | - |
| 1777758798 | 11.11° C | 32% | 1015.7 hPa | 0 mm | - | - | - |
| 1777758468 | 11.11° C | 35% | 1015.6 hPa | 0 mm | - | - | - |
| 1777758168 | 11.67° C | 33% | 1015.6 hPa | 0 mm | - | - | - |
| 1777757837 | 11.11° C | 34% | 1015.7 hPa | 0 mm | - | - | - |
| 1777757507 | 11.11° C | 32% | 1015.7 hPa | 0 mm | - | - | - |
| 1777757177 | 11.11° C | 35% | 1015.8 hPa | 0 mm | - | - | - |
| 1777756877 | 11.11° C | 33% | 1015.8 hPa | 0 mm | - | - | - |
| 1777756547 | 11.11° C | 34% | 1015.8 hPa | 0 mm | - | - | - |
| 1777756247 | 11.11° C | 32% | 1015.8 hPa | 0 mm | - | - | - |
| 1777755947 | 11.11° C | 33% | 1015.8 hPa | 0 mm | - | - | - |
| 1777755619 | 11.11° C | 32% | 1016.1 hPa | 0 mm | - | - | - |
| 1777755316 | 10.56° C | 32% | 1016.1 hPa | 0 mm | - | - | - |
| 1777755019 | 10.56° C | 34% | 1016.1 hPa | 0 mm | - | - | - |
| 1777754686 | 10.56° C | 35% | 1016.3 hPa | 0 mm | - | - | - |
| 1777754356 | 10.56° C | 30% | 1016.2 hPa | 0 mm | - | - | - |
| 1777754056 | 10.56° C | 33% | 1016.3 hPa | 0 mm | - | - | - |
| 1777753756 | 10.56° C | 33% | 1016.3 hPa | 0 mm | - | - | - |
| 1777753426 | 10.56° C | 31% | 1016.5 hPa | 0 mm | - | - | - |
| 1777753126 | 10.56° C | 31% | 1016.5 hPa | 0 mm | - | - | - |
| 1777752796 | 10.56° C | 32% | 1016.5 hPa | 0 mm | - | - | - |
| 1777752496 | 10° C | 31% | 1016.5 hPa | 0 mm | - | - | - |
* Rain latest hour (hover to see other rain measurements)
** Current wind speed in m/s (hover to see current wind gust speed)